Regional Weather Roundup
Issued by NWS

Home | Current Version | Previous Version | Graphics & Text | Print | Product List | Glossary On
Versions: 1 2 3 4 5 6 7 8 9 10 11 12 13 14 15 16 17 18 19 20 21 22 23 24 25 26 27 28 29 30 31 32 33 34 35 36 37 38 39 40 41 42 43 44 45 46 47 48 49 50
000
ASUS43 KMKX 030400
RWRWI

WISCONSIN REGIONAL WEATHER ROUNDUP
NATIONAL WEATHER SERVICE MILWAUKEE/SULLIVAN WI
1100 PM CDT WED SEP 02 2015

NOTE: "FAIR" INDICATES FEW OR NO CLOUDS BELOW 12,000 FEET WITH NO
SIGNIFICANT WEATHER AND/OR OBSTRUCTIONS TO VISIBILITY.

WIZ001-002-006>008-014>016-023>028-030500-
NORTHWEST WISCONSIN

CITY           SKY/WX    TMP DP  RH WIND       PRES   REMARKS
SUPERIOR ARPT  PTCLDY    58  58  97 NE6       29.97R
ASHLAND        FOG       63  63 100 NE5       29.98S VSB 1/4
HAYWARD        CLEAR     66  64  93 N5        29.97R
SIREN          PTCLDY    67  65  93 CALM      29.94S
CUMBERLAND     PTCLDY    64  63  94 NE3       29.95S
RICE LAKE      PTCLDY    65  64  94 CALM      29.96R FOG
CHETEK         MOCLDY   N/A N/A N/A MISG      29.95R
LADYSMITH      CLOUDY    69  67  94 NE5       29.97S
EAU CLAIRE     NOT AVBL
MENOMONIE      PTCLDY    68  67  96 CALM      29.93S
NEW RICHMOND   CLOUDY    67  66  96 E6        29.94R
OSCEOLA        PTCLDY    68  68 100 E5        29.95S
$$

WIZ003>005-009-010-017-018-030500-
NORTH CENTRAL WISCONSIN

CITY           SKY/WX    TMP DP  RH WIND       PRES   REMARKS
MANITOWISH WTR CLOUDY    63  63 100 CALM      29.99S FOG
ARBOR VITAE    CLOUDY    67  65  94 E5        29.99S
WOODRUFF       CLOUDY    67  65  94 E5        29.99S
RHINELANDER    CLOUDY    66  64  93 NE8       29.99S
EAGLE RIVER    DRIZZLE   65  65  99 E9        30.00S
LAND O LAKES   CLOUDY    66  65  97 CALM      30.01S
PHILLIPS       CLOUDY    65  64  97 CALM      29.97S
TOMAHAWK       CLOUDY    66  65  94 NE5       29.97S
MEDFORD        CLOUDY    67  67 100 NE3       29.96R
MERRILL        CLOUDY    67  67 100 CALM      29.96F
$$

WIZ029-030-035-036-043>047-030500-
CENTRAL WISCONSIN

CITY           SKY/WX    TMP DP  RH WIND       PRES   REMARKS
WAUSAU         LGT RAIN  69  67  93 E3        29.93S
MOSINEE        RAIN      68  68 100 CALM      29.95S
MARSHFIELD     CLOUDY    72  67  84 NE7       29.94S
STEVENS POINT  CLOUDY    68  68  98 CALM      29.94S
WAUPACA        CLOUDY    73  71  93 N5        29.93S
WAUTOMA        NOT AVBL
WISC RAPIDS    CLOUDY    73  70  90 CALM      29.94S
CAMP DOUGLAS   NOT AVBL
$$

WIZ011>013-019>022-031-037>040-048>050-030500-
NORTHEAST WISCONSIN

CITY           SKY/WX    TMP DP  RH WIND       PRES   REMARKS
ANTIGO         CLOUDY    66  66  99 E6        29.97R
SHAWANO        LGT RAIN  69  67  91 E6        29.93F
OCONTO         CLOUDY    67  67 100 W3        29.92F
STURGEON BAY   MOCLDY    68  64  88 SE8       29.95F
GREEN BAY      CLOUDY    70  68  93 E5        29.92F FOG
MANITOWOC      NOT AVBL
APPLETON       MOCLDY    73  66  78 S6        29.91F
CLINTONVILLE   CLOUDY    68  64  88 E3        29.91F
OSHKOSH        PTCLDY    74  68  81 S8        29.93S
$$

WIZ032>034-041-042-053>061-030500-
SOUTHWEST WISCONSIN

CITY           SKY/WX    TMP DP  RH WIND       PRES   REMARKS
LA CROSSE      MOCLDY    78  70  76 S8        29.90S HX  80
SPARTA         PTCLDY    69  67  93 CALM      29.93R
VIROQUA          N/A     73  70  91 S7        29.95R
BOSCOBEL       CLOUDY    79  69  71 SW7       29.94R HX  81
PRAIRIE DU CHI CLEAR     74  66  77 CALM      29.92S
PLATTEVILLE    CLEAR     73  70  92 S3        29.96S
$$

WIZ056-057-062-063-064-067-068-030500-
SOUTH CENTRAL WISCONSIN

CITY           SKY/WX    TMP DP  RH WIND       PRES   REMARKS
REEDSBURG      CLEAR     74  69  86 CALM      29.94R
BARABOO/DELLS  MOCLDY    71  67  87 CALM      29.95R
LONE ROCK      NOT AVBL
MINERAL POINT  CLOUDY    77  70  78 SW9       29.97R
MADISON        CLOUDY    77  68  73 S3        29.95R
MIDDLETON      CLOUDY    75  69  84 CALM      29.96R
WATERTOWN      CLOUDY    74  73  96 CALM      29.95S
MONROE         MOCLDY    73  70  88 SW9       29.96S
JANESVILLE     CLOUDY    77  68  73 CALM      29.95S
$$

WIZ051-052-058>065-066-070>072-030500-
SOUTHEAST WISCONSIN

CITY           SKY/WX    TMP DP  RH WIND       PRES   REMARKS
MILWAUKEE      MOCLDY    78  71  79 S6        29.95F HX  80
WAUKESHA       PTCLDY    73  68  83 CALM      29.97S
MILWAUKEE/TIMM CLOUDY    77  68  73 S5        29.96S
RACINE         CLOUDY    75  70  84 S5        29.97F
BURLINGTON     PTCLDY    70  68  95 CALM      29.96S
KENOSHA        MOCLDY    77  70  79 S5        29.97S
FOND DU LAC    PTCLDY    73  69  87 S6        29.94S
SHEBOYGAN      CLOUDY    72  69  90 S5        29.94F
WEST BEND      CLOUDY    72  68  88 CALM      29.96S
JUNEAU         CLOUDY    75  68  78 CALM      29.96S
$$

LSZ147-162-030500-
LAKE SUPERIOR

STATION/POSITION TIME  TEMP    WIND        PRES    WAVE
                       AIR SEA DIR/SP/G            HT/PER
                 (UTC) (F)     (DEG/KT/KT) (MB)    (FT/S)
W MID LAKE BUOY  0250   58 57   80/ 10/ 12 1015.1R   0
DEVILS ISLAND    0300   59     100/  4/  4 1015.0R
PORT WING        0300   62      70/  3/  6 1014.6S
SAXON HARBOR     0340   61      CALM  /  2 1014.6R
$$

LMZ867-665-643>646-030500-
LAKE MICHIGAN

STATION/POSITION TIME  TEMP    WIND        PRES    WAVE
                       AIR SEA DIR/SP/G            HT/PER
                 (UTC) (F)     (DEG/KT/KT) (MB)    (FT/S)
CHAMBERS ISLAND  0300   68     100/  6/ 13 1013.2S
S GREEN BAY BUOY 0300   67 66  130/ 14/ 17 1014.6F
N MID LAKE BUOY  0250   68 66  120/  4/  4 1013.7S   0
NORTHPORT PIER   0300   67     150/  9/ 12 1013.5F
SISTER BAY       0319   68     140/ 10/ 15   N/A
ALGOMA LAKESHORE 0314           CALM  /  3   N/A
KEWAUNEE LAKESHO 0300   58     170/  5/  6 1013.2F
SHEBOYGAN LAKESH 0300   70     180/  3/  4 1014.0R
PORT WASHINGTON  0300   61      CALM  /  1 1014.9R
ATWATER BUOY     0300   61     160/  6/  8 1015.6R
MILWAUKEE LAKESH 0310   63      CALM  /  1   N/A
S MID LAKE BUOY  0350   73 71  170/  6/  6 1014.3R
KENOSHA   LAKESH 0300   72     170/  5/  7 1014.2R
$$

TC  - TEMPERATURE IN CELSIUS
VSB - VISIBILITY IN STATUTE MILES
WCI - WIND CHILL INDEX
HX  - HEAT INDEX




USA.gov is the U.S. government's official web portal to all federal, state and local government web resources and services.